Location: Cheyres
(46.8153°N, 6.7877°E)
Time: 21:52:32
(UTC+00:00)

QB50P2 - Pass Details

Date: 04 July 2022
Orbit: 590 x 605 km, 97.9° (Epoch: 07 August)

Event Time Altitude Azimuth Distance (km) Brightness Sun altitude
Rises 00:36:43 0° 18° (NNE) 2,862 ? -19.0°
Reaches altitude 10° 00:38:58 10° 25° (NNE) 1,956 ? -18.9°
Maximum altitude 00:43:04 46° 99° (E) 813 ? -18.7°
Enters shadow 00:44:37 32° 151° (SSE) 1,055 ? -18.6°
